星链-4115 (STARLINK-4115 )

导读

STARLINK-4115是美国太空探索技术公司(SpaceX)星链(Starlink)项目的卫星,于北京时间2022年7月7日发射升空,进入近地轨道运行。作为星链星座组成部分,它主要为全球提供高速、低延迟的天基互联网接入服务,可覆盖偏远地区,并支持移动场景联网,助力SpaceX打造全球最大卫星互联网星座。

Basic Information
目录编号:
53032
目录名称:
STARLINK-4115
国际标识:
2022-076AY
轨道中心:
EARTH
卫星名称:
星链-4115
卫星全名:
星链-4115 (STARLINK-4115 )
卫星状态:
在轨 (已飞行1528 天)
发射日期:
2022-07-07 UTC
国别 :
美国 (US)
星等 :
--
This satellite is enrolled in the Space Conjunction Data Service (SCDS) and the current flight risk assessment level is: No High Risk
Orbit Information
数据来源 国际轨道数据
星历时间: 2026-09-12T12:22:24+0800
6小时前
查看轨道信息
半长轴: 6840.816km
偏心率: 0.0001097
轨道倾角: 53.160°
近地点辐角 83.108°
升交点赤经 312.285°
平近点角 277.005°
近地点: 461.928km
远地点: 463.43km
周期: 93.847分钟
每日圈数: 15.344082
Detailed Information
固有亮度:
5
最大亮度:
2.5
卫星平台:
Starlink v1.5
覆盖范围:
全球
运营商:
太空探索技术公司
运营商所在国:
美国
制造商(研发单位):
太空探索技术公司
制造商所在国:
美国
使用方式:
暂无
Satellite Introduction
星链(Starlink)计划是由太空探索技术公司(SpaceX)提出的一个巨型低轨卫星互联网星座项目,计划在2019年至2024年间在太空搭建由约1.2万颗卫星组成的“星链”网络,其中1584颗将部署在地球上空550千米处的近地轨道,并从2020年开始工作。该卫星仍在工作。
2D Orbit Map
3D Orbit Map
Orbit Altitude Analysis Chart
Orbit Inclination Analysis Chart
Orbit Comprehensive Analysis Chart
View Comprehensive Chart
Conjunction Data List
Event ID Objects TCA Miss Dist (km) Collision Risk Probability Collision Risk Index (CRI) Action
CDM_260913-023205-303206-508821
2026-09-13T
02:32:51+0000
0.879 km
远距离
2.533194E-5 中风险 0.63
CDM_260914-015905-303206-510121
2026-09-14T
01:59:25+0000
0.987 km
远距离
1.754065E-5 中风险 0.6
CDM_260914-120905-303206-510121
2026-09-14T
12:09:04+0000
1.124 km
极远距离
1.118535E-5 中风险 0.56
CDM_260913-093405-303206-508822
2026-09-13T
09:34:54+0000
1.658 km
极远距离
3.027959E-6 低风险 0.45
CDM_260912-104605-303206-323922
2026-09-12T
10:46:57+0000
2.100 km
极远距离
2.512595E-6 低风险 0.43
CDM_260914-033305-303206-510121
2026-09-14T
03:33:13+0000
2.019 km
极远距离
1.828023E-6 低风险 0.4
CDM_260913-110805-303206-508822
2026-09-13T
11:08:42+0000
2.189 km
极远距离
1.481962E-6 低风险 0.38
CDM_260905-023205-236405-303222
2026-09-05T
02:32:56+0000
2.817 km
极远距离
1.169459E-6 低风险 0.36
CDM_260913-005905-303206-508821
2026-09-13T
00:59:03+0000
2.715 km
极远距离
1.011769E-6 低风险 0.35
Miss Distance Evolution Trend with All Objects
Collision Probability Evolution Trend with All Objects